Location: Del Amo
(33.8464°N, 118.2104°W)
Time: 18:58:01
(UTC+00:00)

S-56A Canister/Altair - Pass Details

Date: 22 September 2024
Orbit: 636 x 2487 km, 38.9° (Epoch: 14 October)

Event Time Altitude Azimuth Distance (km) Brightness Sun altitude
Rises 08:09:18 0° 274° (W) 4,410 - -55.6°
Reaches altitude 10° 08:13:22 10° 255° (WSW) 3,769 - -55.5°
Maximum altitude 08:19:13 17° 219° (SW) 3,655 - -55.2°
Drops below altitude 10° 08:26:13 10° 185° (S) 4,638 - -54.8°
Sets 08:32:16 0° 168° (SSE) 5,917 - -54.4°
